Regional Weather Roundup
Issued by NWS

Home | Current Version | Previous Version | Graphics & Text | Print | Product List | Glossary On
Versions: 1 2 3 4 5 6 7 8 9 10 11 12 13 14 15 16 17 18 19 20 21 22 23 24 25 26 27 28 29 30 31 32 33 34 35 36 37 38 39 40 41 42 43 44 45 46 47 48 49 50
489
ASUS45 KSLC 231110
RWRUT

UTAH REGIONAL WEATHER ROUNDUP
NATIONAL WEATHER SERVICE SALT LAKE CITY UT
500 AM MDT MON MAY 23 2016

UTZ001>011-023>025-231200-

NORTHERN UTAH

CITY           SKY/WX    TMP DP  RH WIND       PRES   REMARKS
BRIGHAM CITY     N/A     42  38  85 NW5       29.95S
HILL AFB       MOCLDY    43  36  78 CALM      29.94S
LOGAN          MOCLDY    38  38 100 N3        29.97S
OGDEN          MOCLDY    44  37  76 N6        29.94R
PROVO AIRPORT  NOT AVBL
SALT LAKE CITY MOCLDY    46  40  79 N6        29.93S
VERNAL         PTCLDY    38  25  59 W5        29.97R WCI  34
WENDOVER       MOCLDY    50  34  53 SE3       29.93S
HEBER CITY     MOCLDY    36  32  87 CALM      29.96S
WEST JORDAN    MOCLDY    43  39  87 NW3       29.94S

$$

UTZ012>022-026-027-231200-

SOUTHERN/CENTRAL UTAH

CITY           SKY/WX    TMP DP  RH WIND       PRES   REMARKS
BLANDING       PTCLDY    42  21  43 NE6       30.00S
BRYCE CANYON   PTCLDY    30  19  63 CALM      30.00S
CEDAR CITY     PTCLDY    44  23  43 SE7       29.91F
DELTA          MOCLDY    43  32  65 N8        29.90R
HANKSVILLE     CLEAR     45  21  39 CALM      29.91S
MILFORD        PTCLDY    39  24  55 S6        29.90S WCI  35
MOAB/CYNLANDS  CLEAR     54  24  31 CALM      29.87S
PRICE          PTCLDY    40  20  44 N5        29.92F
ST GEORGE      PTSUNNY   55  18  22 E10       29.86S
KANAB          CLEAR     36  27  69 CALM      29.96S

$$

REGIONAL REPORTS     COLORADO/ARIZONA

CITY           SKY/WX    TMP DP  RH WIND       PRES   REMARKS
CRAIG, CO      CLEAR     27  24  89 SE3       30.03S
GRAND JUNCTION CLOUDY    44  25  47 CALM      29.92S
RIFLE          CLOUDY    38  28  67 CALM      29.99R
MONTROSE       CLOUDY    40  27  59 SE3       29.98R
CORTEZ         CLEAR     33  26  75 E3        29.95S
PAGE, AZ       PTCLDY    55  19  24 S3        29.87S
GRAND CANYON   CLEAR     28  15  58 CALM      29.99F
KINGMAN        CLEAR     52  18  26 VRB3      29.86S
FLAGSTAFF      CLEAR     32  21  64 W5        30.01R WCI  27

$$

REGIONAL REPORTS    NEVADA/IDAHO/WYOMING

CITY           SKY/WX    TMP DP  RH WIND       PRES   REMARKS
LAS VEGAS, NV  CLEAR     67  27  22 S10       29.75S
ELY            PTCLDY    40  28  62 NE3       29.95S
ELKO           CLOUDY    45  33  63 NE5       29.92F
POCATELLO, ID  CLEAR     35  32  88 W3        29.95S
BURLEY         CLEAR     39  34  82 VRB3      29.93S
EVANSTON, WY   CLOUDY    34  27  75 E5        29.98F WCI  30
ROCK SPRINGS   CLEAR     32  30  92 W7        29.99R WCI  26

$$




USA.gov is the U.S. government's official web portal to all federal, state and local government web resources and services.